IAS weather

Iaşi Airport
Iaşi, Iaşi, Romania

Public forecast

Using degrees Celsius for public forecast. Weather courtesy of forecast.io.

Current aviation weather report (METAR) for Iaşi Airport

Retrieved 2020/07/14 09:30 UTC (23 minutes ago):

LRIA 140930Z 30013KT 9999 FEW040TCU SCT044 20/08 Q1016

Closest aviation forecast (TAF) to Iaşi Airport

Forecast is more than 12 hours old.

Closest forecast is Bacău Airport, 49.0 nm (90.8 km) SW. Retrieved 2010/08/31 20:30 UTC (10 years ago):

TAF LRBC 312030Z 3121/0203 CNL